LIBRLGKR

Guest
Details From LIBR - BRINDISI/Casale
To LGKR - IOANNIS KAPODISTRIAS INTL
Flight Number -
Tags generated
Created
Modified
Stats Distance 111 nm / 205 km
Max Altitude 6,000 ft / 1,829 m
Waypoints 3
Social Downloads 0
Likes 0
Share VATSIM

Download

Looking for another format? Having issues loading an existing format? Contact us
Advertisement - Login to hide

Notes

Basic altitude profile: - Ascent Rate: 2500ft/min - Ascent Speed: 250kts - Cruise Altitude: 35000ft - Cruise Speed: 420kts - Descent Rate: 1500ft/min - Descent Speed: 250kts Options: - Use NATs: no - Use PACOTS: no - Use low airways: no - Use high airways: yes

Route

LIBR TONLI LGKR

ID Type Via Altitude Latitude Longitude Leg Dist Tot Dist Heading (true) Name
O LIBR APT - 0 ft / 0 m 40.66082˚ 17.94267˚ - 0 nm - BRINDISI/Casale
TONLI FIX - 6,000 ft / 1,829 m 39.85028˚ 19.39444˚ 82 nm 82 nm 126° / 127° -
O LGKR APT - 0 ft / 0 m 39.60178˚ 19.91191˚ 28 nm 110 nm 122° / 122° IOANNIS KAPODISTRIAS INTL

Altitude Profile

Advertisement - Login to hide

LIBR

Details ICAO LIBR (BDS)
Name BRINDISI/Casale
Region Italy
Timezone Europe/Rome (UTC+1.0)
Stats Elevation 47 ft / 14 m (AMSL)
Location 40.660824° 17.942673°
Runways 2
Magnetic Variation 3.890° E

METAR

LIBR 131445Z 18008KT 8000 SCT040 16/14 Q1018 NOSIG

Decode

TAF

TAF LIBR 131100Z 1312/1412 20012KT 9999 SCT020 SCT050 TEMPO 1316/1319 5000 RA BKN020 BECMG 1319/1321 30012KT CAVOK BECMG 1405/1407 20012KT

Decode

Departure Runways

ID Width Length Bearing (true) Bearing (mag) Surface Threshold Offset Overrun Length
13 148 ft / 45 m 9,398 ft / 2,865 m 136.56° 132.67° Asphalt 0 ft / 0 m 689 ft / 210 m
23 148 ft / 45 m 6,129 ft / 1,868 m 232.52° 228.63° Asphalt 230 ft / 70 m 0 ft / 0 m
31 148 ft / 45 m 9,398 ft / 2,865 m 316.58° 312.69° Asphalt 0 ft / 0 m 387 ft / 118 m
5 148 ft / 45 m 6,129 ft / 1,868 m 52.51° 48.62° Asphalt 0 ft / 0 m 0 ft / 0 m

LGKR

Details ICAO LGKR (CFU)
Name IOANNIS KAPODISTRIAS INTL
Region Greece
Timezone Europe/Athens (UTC+2.0)
Stats Elevation 6 ft / 2 m (AMSL)
Location 39.601779° 19.911908°
Runways 1
Magnetic Variation 4.098° E

METAR

LGKR 131450Z 17011KT 9999 SCT010 SCT030 16/13 Q1020 NOSIG

Decode

TAF

TAF LGKR 131100Z 1312/1412 16015KT 9999 FEW008 SCT015 BKN025 PROB40 TEMPO 1312/1406 5000 RA PROB30 TEMPO 1318/1403 3000 TSRA SCT008 FEW018CB BKN020 BECMG 1319/1321 22012KT BECMG 1322/1324 31008KT

Decode

Destination Runways

ID Width Length Bearing (true) Bearing (mag) Surface Threshold Offset Overrun Length
17 148 ft / 45 m 7,815 ft / 2,382 m 168.81° 164.71° Asphalt 1,348 ft / 411 m 0 ft / 0 m
35 148 ft / 45 m 7,815 ft / 2,382 m 348.81° 344.71° Asphalt 213 ft / 65 m 0 ft / 0 m

Popular Alternatives